EW3148 Weather Reports


time (UTC)temp
F
wind
direction
speed
knots
gust
knots
rain 1hr
in
rain 24hr
in
rain mn
in
humidity
%
barometer
mb
20260504200114 82 207 7.0 13.0 0.00 0.00 0.00 58 1009.3
20260504195139 83 194 4.3 13.0 0.00 0.00 0.00 58 1009.5
20260504194134 82 162 4.3 14.8 0.00 0.00 0.00 59 1009.8
20260504193113 81 232 4.3 14.8 0.00 0.00 0.00 59 1009.8
20260504192114 80 192 3.5 17.4 0.00 0.00 0.00 63 1010.0
20260504191123 80 172 6.1 17.4 0.00 0.00 0.00 61 1010.2
20260504190148 79 174 5.2 14.8 0.00 0.00 0.00 62 1010.3
20260504185140 79 192 7.0 15.6 0.00 0.00 0.00 61 1010.3
20260504184114 79 213 6.1 15.6 0.00 0.00 0.00 61 1010.5
20260504181953 79 172 5.2 13.0 0.00 0.00 0.00 61 1010.9
20260504181003 78 196 4.3 13.0 0.00 0.00 0.00 63 1011.0
20260504180015 78 221 4.3 13.9 0.00 0.00 0.00 64 1011.1
20260504174950 78 195 5.2 16.5 0.00 0.00 0.00 63 1011.1
20260504173941 77 188 5.2 16.5 0.00 0.00 0.00 66 1011.3
20260504172956 77 182 5.2 14.8 0.00 0.00 0.00 66 1011.7
20260504171932 76 149 5.2 14.8 0.00 0.00 0.00 67 1011.9
20260504150437 69 209 4.3 11.3 0.00 0.00 0.00 77 1012.7
20260504141240 68 167 3.5 13.0 0.00 0.00 0.00 76 1012.6
20260504140259 67 140 5.2 13.0 0.00 0.00 0.00 77 1012.7
20260504080104 63 163 2.6 7.8 0.00 0.00 0.00 78 1013.3
20260504050641 65 171 2.6 8.7 0.00 0.00 0.00 68 1015.5
20260504045636 65 151 2.6 7.8 0.00 0.00 0.00 67 1015.5
20260504044632 65 155 3.5 7.0 0.00 0.00 0.00 66 1015.4
20260504042512 66 187 2.6 7.0 0.00 0.00 0.00 63 1015.5
20260504040352 67 149 3.5 8.7 0.00 0.00 0.00 60 1015.6
20260504035406 67 180 2.6 12.2 0.00 0.00 0.00 59 1015.7
20260504034355 67 211 2.6 12.2 0.00 0.00 0.00 57 1015.7
20260504033416 67 165 1.7 7.0 0.00 0.00 0.00 56 1015.6
20260504032346 68 184 2.6 7.0 0.00 0.00 0.00 54 1015.5
20260504030240 68 186 1.7 3.5 0.00 0.00 0.00 53 1015.5
20260504025250 68 169 0.9 4.3 0.00 0.00 0.00 53 1015.5
20260504024303 69 200 0.9 4.3 0.00 0.00 0.00 52 1015.5
20260504023313 69 174 1.7 4.3 0.00 0.00 0.00 52 1015.4
20260504022249 69 172 0.9 3.5 0.00 0.00 0.00 52 1015.5
20260504021217 69 197 0.9 4.3 0.00 0.00 0.00 51 1015.4
20260504020154 70 176 1.7 4.3 0.00 0.00 0.00 50 1015.4
20260504015157 70 177 0.9 4.3 0.00 0.00 0.00 49 1015.3
20260504013021 71 183 1.7 4.3 0.00 0.00 0.00 48 1014.9
20260504011950 72 174 1.7 4.3 0.00 0.00 0.00 46 1014.8
20260504005834 73 171 1.7 6.1 0.00 0.00 0.00 44 1014.8
20260504004845 74 182 1.7 7.0 0.00 0.00 0.00 43 1014.8
20260504002647 75 156 2.6 7.8 0.00 0.00 0.00 41 1015.0
20260504001650 75 175 2.6 9.6 0.00 0.00 0.00 40 1015.1
20260504000715 76 158 3.5 9.6 0.00 0.00 0.00 39 1015.2
20260503234641 77 182 3.5 11.3 0.00 0.00 0.00 38 1015.5
20260503233620 77 180 3.5 10.4 0.00 0.00 0.00 38 1015.6
20260503232559 78 118 3.5 10.4 0.00 0.00 0.00 37 1015.4
20260503231538 77 183 2.6 9.6 0.00 0.00 0.00 40 1015.6
20260503230536 77 148 4.3 13.9 0.00 0.00 0.00 38 1015.4
20260503225528 77 251 3.5 13.9 0.00 0.00 0.00 39 1015.4
20260503224523 77 169 3.5 9.6 0.00 0.00 0.00 40 1015.5
20260503222403 80 155 2.6 13.0 0.00 0.00 0.00 36 1015.9
20260503220224 80 135 2.6 8.7 0.00 0.00 0.00 36 1016.2
20260503215205 80 238 3.5 11.3 0.00 0.00 0.00 36 1016.4
20260503214142 80 179 3.5 13.9 0.00 0.00 0.00 35 1016.5
20260503213201 80 175 3.5 13.9 0.00 0.00 0.00 34 1016.6
20260503212211 80 188 2.6 15.6 0.00 0.00 0.00 36 1016.8
20260503211141 80 212 4.3 15.6 0.00 0.00 0.00 35 1017.1
20260503210146 80 211 3.5 12.2 0.00 0.00 0.00 35 1017.2
20260503205200 79 141 3.5 12.2 0.00 0.00 0.00 33 1017.6
20260503202952 80 174 3.5 11.3 0.00 0.00 0.00 34 1017.9
20260503202000 79 161 3.5 12.2 0.00 0.00 0.00 34 1018.2
20260503200948 79 153 4.3 12.2 0.00 0.00 0.00 35 1018.1